FW9658 Weather Reports


Display with metric or nautical units.
time (UTC)temp
F
wind
direction
speed
MPH
gust
MPH
rain 1hr
in
rain 24hr
in
rain mn
in
humidity
%
barometer
mb
20260507103031 72 0 0.0 3.0 0.00 0.15 0.15 85 1014.5
20260507101542 72 0 0.0 0.0 0.00 0.15 0.15 86 1014.9
20260507100039 72 0 0.0 1.0 0.00 0.15 0.15 87 1014.5
20260507094535 73 0 0.0 1.0 0.00 0.15 0.15 88 1014.9
20260507093033 73 216 0.0 2.0 0.00 0.15 0.15 88 1014.3
20260507091540 73 0 0.0 1.0 0.00 0.15 0.15 88 1014.2
20260507090038 74 0 0.0 0.0 0.00 0.15 0.15 88 1013.5
20260507084536 74 0 0.0 1.0 0.00 0.15 0.15 88 1013.3
20260507083035 74 0 0.0 1.0 0.00 0.15 0.15 88 1013.1
20260507081538 74 0 0.0 4.0 0.00 0.15 0.15 88 1012.7
20260507080036 74 210 1.0 5.0 0.00 0.15 0.15 88 1012.7
20260507074535 74 224 1.0 3.0 0.00 0.15 0.15 88 1012.3
20260507073037 74 224 0.0 1.0 0.00 0.15 0.15 88 1012.8
20260507071536 73 0 0.0 2.0 0.00 0.15 0.15 88 1013.0
20260507070035 73 0 0.0 4.0 0.00 0.15 0.15 88 1013.0
20260507064535 73 208 0.0 4.0 0.00 0.15 0.15 88 1013.1
20260507063035 73 210 1.0 4.0 0.02 0.15 0.15 88 1013.5
20260507061537 73 219 1.0 4.0 0.12 0.15 0.15 89 1013.5
20260507060037 73 0 0.0 3.0 0.15 0.15 0.15 89 1013.9
20260507054538 73 0 0.0 3.0 0.15 0.15 0.15 89 1013.7
20260507053035 74 227 0.0 4.0 0.12 0.12 0.12 89 1014.2
20260507051534 74 3 1.0 4.0 0.03 0.03 0.03 88 1014.3
20260507050035 74 198 1.0 5.0 0.00 0.00 0.00 89 1014.7
20260507044537 74 196 1.0 5.0 0.00 0.11 0.00 90 1014.4
20260507043035 74 200 1.0 4.0 0.00 0.11 0.00 90 1014.6
20260507041535 74 0 0.0 4.0 0.00 0.11 0.00 90 1014.8
20260507040036 74 0 1.0 3.0 0.00 0.11 0.00 91 1014.7
20260507034537 74 196 0.0 5.0 0.00 0.11 0.11 91 1014.6
20260507033036 74 0 0.0 5.0 0.00 0.11 0.11 91 1014.9
20260507031534 74 205 0.0 3.0 0.00 0.11 0.11 91 1014.7
20260507030034 74 207 1.0 5.0 0.00 0.11 0.11 91 1014.6
20260507024533 74 0 0.0 3.0 0.00 0.11 0.11 90 1014.1
20260507023042 75 206 0.0 5.0 0.00 0.11 0.11 90 1014.3
20260507021534 75 200 1.0 4.0 0.00 0.11 0.11 90 1014.2
20260507020048 75 0 0.0 5.0 0.00 0.11 0.11 89 1014.7
20260507014533 75 0 1.0 3.0 0.00 0.11 0.11 89 1014.9
20260507013047 75 195 1.0 4.0 0.00 0.11 0.11 88 1014.7
20260507011535 75 0 0.0 3.0 0.00 0.11 0.11 88 1015.2
20260507010037 74 202 1.0 3.0 0.00 0.11 0.11 87 1015.0
20260507004540 74 203 0.0 4.0 0.00 0.11 0.11 88 1015.0
20260507003042 75 202 1.0 3.0 0.00 0.11 0.11 87 1015.2
20260507001543 75 201 1.0 4.0 0.00 0.11 0.11 87 1014.8
20260507000038 75 199 0.0 5.0 0.00 0.11 0.11 87 1014.8
20260506234538 75 0 1.0 5.0 0.00 0.11 0.11 86 1014.8
20260506233035 75 227 1.0 3.0 0.00 0.11 0.11 86 1014.7
20260506231537 75 210 0.0 6.0 0.00 0.11 0.11 86 1014.7
20260506230046 76 174 1.0 5.0 0.00 0.11 0.11 86 1014.5
20260506224537 76 212 0.0 5.0 0.00 0.11 0.11 86 1014.6
20260506223042 76 195 0.0 4.0 0.00 0.11 0.11 87 1015.1
20260506221534 76 0 1.0 4.0 0.00 0.11 0.11 86 1015.0
20260506220035 76 198 1.0 5.0 0.00 0.11 0.11 86 1014.7
20260506214541 76 217 0.0 5.0 0.00 0.11 0.11 86 1014.9
20260506213046 76 200 1.0 5.0 0.00 0.11 0.11 85 1015.1
20260506211535 76 205 2.0 6.0 0.00 0.11 0.11 84 1015.1
20260506210035 76 238 1.0 4.0 0.00 0.11 0.11 84 1015.3
20260506204532 77 217 1.0 5.0 0.00 0.11 0.11 84 1015.3
20260506203033 77 205 3.0 7.0 0.00 0.11 0.11 83 1015.4
20260506201535 77 219 2.0 8.0 0.00 0.11 0.11 83 1015.6
20260506200034 77 200 2.0 5.0 0.00 0.11 0.11 82 1015.8
20260506194535 77 131 1.0 5.0 0.00 0.11 0.11 82 1015.7
20260506193033 77 202 2.0 6.0 0.00 0.11 0.11 82 1016.0
20260506191540 77 196 1.0 6.0 0.00 0.11 0.11 82 1016.2
20260506190035 78 205 2.0 10.0 0.00 0.11 0.11 80 1016.3
20260506184546 79 198 2.0 6.0 0.00 0.11 0.11 80 1016.4
20260506183050 79 211 1.0 8.0 0.00 0.11 0.11 79 1016.4
20260506181558 79 220 2.0 8.0 0.00 0.11 0.11 78 1016.5
20260506180037 79 170 1.0 5.0 0.00 0.11 0.11 79 1016.6
20260506174533 79 198 1.0 5.0 0.00 0.11 0.11 79 1016.8
20260506173053 78 202 1.0 4.0 0.00 0.11 0.11 80 1017.1
20260506171534 78 203 1.0 5.0 0.00 0.11 0.11 80 1017.5
20260506170039 77 213 1.0 4.0 0.00 0.11 0.11 81 1017.4
20260506164538 78 200 0.0 3.0 0.00 0.11 0.11 80 1017.6
20260506163038 77 200 1.0 5.0 0.00 0.11 0.11 79 1017.6
20260506161535 77 194 1.0 5.0 0.00 0.11 0.11 79 1017.8
20260506160034 77 202 2.0 5.0 0.00 0.11 0.11 78 1017.7
20260506154542 79 198 1.0 4.0 0.00 0.11 0.11 75 1017.9
20260506153050 78 0 0.0 4.0 0.00 0.11 0.11 77 1017.8
20260506151541 77 208 0.0 3.0 0.00 0.11 0.11 79 1018.2
20260506150035 77 198 0.0 4.0 0.00 0.11 0.11 78 1018.1
20260506144544 77 201 1.0 4.0 0.00 0.11 0.11 77 1017.8
20260506143040 77 212 1.0 5.0 0.00 0.11 0.11 77 1017.5
20260506141535 77 202 1.0 6.0 0.00 0.11 0.11 80 1017.6
20260506140035 76 201 2.0 5.0 0.00 0.11 0.11 81 1017.5
20260506134536 75 0 0.0 3.0 0.00 0.11 0.11 85 1017.2
20260506133034 75 214 1.0 4.0 0.00 0.11 0.11 84 1017.2
20260506131539 75 211 1.0 3.0 0.00 0.11 0.11 85 1016.8
20260506130036 75 223 0.0 4.0 0.00 0.11 0.11 85 1017.2
20260506124535 75 0 0.0 3.0 0.00 0.11 0.11 86 1017.2
20260506123035 74 0 1.0 3.0 0.00 0.11 0.11 87 1016.8
20260506121531 73 191 1.0 4.0 0.00 0.11 0.11 88 1016.9
20260506120041 72 0 0.0 2.0 0.00 0.11 0.11 89 1016.7
20260506114536 71 0 0.0 2.0 0.00 0.11 0.11 90 1016.5
20260506113040 70 0 0.0 2.0 0.00 0.11 0.11 91 1016.3
20260506111533 69 0 0.0 0.0 0.00 0.11 0.11 91 1016.4
20260506110040 68 0 0.0 0.0 0.00 0.11 0.11 90 1016.3
20260506104536 68 0 0.0 0.0 0.00 0.11 0.11 90 1016.3